Location: Cheyres
(46.8153°N, 6.7877°E)
Time: 01:27:14
(UTC+00:00)

Tiros 1 - Pass Details

Date: 28 May 2022
Orbit: 629 x 663 km, 48.4° (Epoch: 05 July)

Event Time Altitude Azimuth Distance (km) Brightness Sun altitude
Exits shadow 01:44:06 11° 266° (W) 1,961 9.3 -15.3°
Maximum altitude 01:48:36 76° 352° (N) 659 7.2 -14.9°
Drops below altitude 10° 01:53:17 10° 79° (E) 2,032 10.4 -14.5°
Sets 01:55:38 0° 81° (E) 2,948 11.2 -14.3°
